THOR ABLESTAR DEB

Satellite information

Favourite Embed

Satellite Type and Status

DEBRISIN ORBIT

Key statistics

Satellite THOR ABLESTAR DEB at a glance.

Uptime

23324

Days in orbit

Revolutions

≈ 13.9

Per day

Orbit

LEO

Low Earth Orbit

Inclination

66.8

Latest

Satellite identification and parameters

Extended collection of information and parameters for THOR ABLESTAR DEB.

Object identification

Identified? True

Debris? True

Object name: THOR ABLESTAR DEB

International designator: 1961-015NG

Object number (NORAD): 48828

Object ID (CCSDS): 48828

Country: UNITED STATES OF AMERICA (US)

Current information (Y/N): Y

RCS size: SMALL

Orbital parameters

Period: 103.307 minutes

Inclination: 66.7632 deg

SMA: 7293.141 km

Apoapsis: 954.633 km

Periapsis: 875.379 km

RAAN: 36.827 deg

Eccentricy: 0.0054335

Argument of periapsis: 45.2195 deg

Mean anomaly: 103.8882 deg

Mean motion: 13.93897468 rev/day

Mean motion (dot): 0.00000176 rev/day2

B* drag term: 0.00018948 1/REarth

Two-line elements (TLE)

Creation date: May 8, 2025, 3:01 a.m.

Reference frame: TEME

Reference center: EARTH

Epoch: May 7, 2025, 4:11 a.m. UTC

TLE line 0: 0 THOR ABLESTAR DEB

TLE line 1: 1 48828U 61015NG 25127.17484701 .00000176 00000-0 18948-3 0 9999

TLE line 2: 2 48828 66.7632 36.8270 0054335 45.2195 103.8882 13.93897468582849

Live tracking on map

Real-time ground track for satellite THOR ABLESTAR DEB.

In-orbit conjunctions

A list of the most updated potential collisions computed for object THOR ABLESTAR DEB.

Target Orbit TCA Probability of collision Miss distance Type
FENGYUN 1C DEB SSO 2025-03-15 13:38:14 0.0001067277 164.0 (m) DEBRIS
SL-3 R/B LEO 2024-08-12 14:52:55 0.0002082002 392.0 (m) ROCKET BODY

Associated space launch

THOR ABLESTAR DEB was lifted into orbit during the mission ‘Thor DM-21 Ablestar | Transit 4A & Injun-1 & Solrad 3’, on board a Thor DM-21 Ablestar space rocket.

The launch took place on June 29, 1961, 4:23 a.m. from Space Launch Complex 17B.

For more information about the launch, click the button.

Launch to space Thor DM-21 Ablestar | Transit 4A & Injun-1 & Solrad 3
Thor DM-21 Ablestar | Transit 4A & Injun-1 & Solrad 3

Agency: N/A

Status: Launch Successful

Launch date: June 29, 1961, 4:23 a.m. UTC

Rocket: Thor DM-21 Ablestar

Launch pad: Space Launch Complex 17B

Location: Cape Canaveral SFS, FL, USA

...

Latest news about this satellite

There are no fresh news available about this satellite. Check back as we update our databases every day.


Newsletter sign-up

Weekly statistics, charts and insights to help you stay on top of the space industry.